FW9327 Weather Reports


time (UTC)temp
F
wind
direction
speed
knots
gust
knots
rain 1hr
in
rain 24hr
in
rain mn
in
humidity
%
barometer
mb
20260510030049 52 0 0.0 0.0 0.00 0.00 0.00 57 1010.0
20260510024549 53 0 0.0 1.7 0.00 0.00 0.00 54 1009.7
20260510023052 55 0 0.0 0.9 0.00 0.00 0.00 53 1009.4
20260510021550 56 0 0.0 1.7 0.00 0.00 0.00 49 1008.9
20260510020052 57 0 0.0 2.6 0.00 0.00 0.00 48 1008.5
20260510014554 60 360 0.9 4.3 0.00 0.00 0.00 44 1008.2
20260510013056 63 5 0.9 4.3 0.00 0.00 0.00 41 1007.6
20260510011557 64 0 0.0 1.7 0.00 0.00 0.00 42 1007.0
20260510010131 65 360 0.0 2.6 0.00 0.00 0.00 39 1006.6
20260510004600 66 360 0.0 3.5 0.00 0.00 0.00 37 1006.4
20260510003052 67 0 0.9 7.0 0.00 0.00 0.00 35 1006.0
20260510001604 68 360 0.9 5.2 0.00 0.00 0.00 36 1005.8
20260509234633 70 5 1.7 8.7 0.00 0.00 0.00 33 1005.4
20260509233052 70 5 0.9 7.8 0.00 0.00 0.00 32 1005.1
20260509231553 71 5 1.7 7.0 0.00 0.00 0.00 31 1005.0
20260509230048 71 5 0.9 10.4 0.00 0.00 0.00 33 1004.7
20260509224553 71 9 1.7 11.3 0.00 0.00 0.00 33 1004.7
20260509223052 72 5 1.7 7.0 0.00 0.00 0.00 31 1004.2
20260509221552 72 5 2.6 9.6 0.00 0.00 0.00 29 1004.2
20260509220057 73 0 1.7 9.6 0.00 0.00 0.00 32 1004.0
20260509214549 73 9 2.6 9.6 0.00 0.00 0.00 32 1003.9
20260509213051 74 5 4.3 12.2 0.00 0.00 0.00 30 1003.6
20260509211554 74 9 3.5 15.6 0.00 0.00 0.00 33 1003.6
20260509210053 74 9 1.7 11.3 0.00 0.00 0.00 33 1003.5
20260509204558 74 9 4.3 13.0 0.00 0.00 0.00 32 1003.4
20260509203112 73 5 4.3 13.0 0.00 0.00 0.00 31 1003.4
20260509201604 71 5 3.5 11.3 0.00 0.00 0.00 35 1003.6
20260509200100 71 360 5.2 13.0 0.00 0.00 0.00 33 1003.8
20260509194551 71 360 0.9 13.9 0.00 0.00 0.00 34 1003.7
20260509193100 71 360 3.5 13.9 0.00 0.00 0.00 33 1003.8
20260509191556 72 5 1.7 9.6 0.00 0.00 0.00 34 1003.7
20260509190056 73 5 2.6 12.2 0.00 0.00 0.00 34 1003.6
20260509184552 72 5 1.7 7.8 0.00 0.00 0.00 32 1003.4
20260509183055 73 5 1.7 9.6 0.00 0.00 0.00 32 1003.6
20260509181559 73 5 2.6 10.4 0.00 0.00 0.00 35 1003.5
20260509180048 73 5 1.7 7.8 0.00 0.00 0.00 37 1003.6
20260509174550 71 5 2.6 7.8 0.00 0.00 0.00 35 1003.6
20260509173054 73 5 0.9 8.7 0.00 0.00 0.00 44 1003.6
20260509171547 73 5 2.6 7.8 0.00 0.00 0.00 48 1003.6
20260509170054 72 5 1.7 5.2 0.00 0.00 0.00 51 1003.7
20260509164559 71 5 0.9 7.8 0.00 0.00 0.00 49 1003.9
20260509163050 70 5 1.7 7.8 0.00 0.00 0.00 55 1003.7
20260509161556 69 5 0.9 7.0 0.00 0.00 0.00 60 1003.8
20260509160047 68 0 0.9 7.0 0.00 0.00 0.00 63 1003.8
20260509154550 67 5 1.7 7.8 0.00 0.00 0.00 62 1003.7
20260509153052 66 5 1.7 7.8 0.00 0.00 0.00 65 1003.8
20260509151607 65 5 1.7 7.0 0.00 0.00 0.00 67 1004.0
20260509150051 64 5 1.7 8.7 0.00 0.00 0.00 70 1003.8
20260509144554 63 9 3.5 9.6 0.00 0.00 0.00 73 1003.8
20260509143053 62 5 2.6 8.7 0.00 0.00 0.00 75 1003.7
20260509141554 61 9 2.6 7.8 0.00 0.00 0.00 78 1003.7
20260509140053 60 360 2.6 8.7 0.00 0.00 0.00 79 1003.9
20260509134551 59 360 2.6 8.7 0.00 0.00 0.00 81 1003.6
20260509133050 58 360 1.7 8.7 0.00 0.00 0.00 86 1003.7
20260509131552 57 360 2.6 8.7 0.00 0.00 0.00 89 1003.7
20260509124552 54 360 2.6 7.8 0.00 0.00 0.00 93 1003.7
20260509123053 53 360 2.6 9.6 0.00 0.00 0.00 94 1003.6
20260509121555 52 360 1.7 7.8 0.00 0.00 0.00 94 1003.5
20260509120058 51 5 0.9 4.3 0.00 0.00 0.00 94 1003.6
20260509114553 51 360 0.9 4.3 0.00 0.00 0.00 94 1003.5
20260509113049 50 5 0.9 4.3 0.00 0.00 0.00 94 1003.3
20260509111546 50 9 0.0 4.3 0.00 0.00 0.00 94 1003.4
20260509110057 50 9 0.9 3.5 0.00 0.00 0.00 93 1003.0
20260509104549 50 5 0.0 5.2 0.00 0.00 0.00 93 1003.0
20260509103051 50 9 0.9 3.5 0.00 0.00 0.00 94 1002.9
20260509101549 51 9 0.9 4.3 0.00 0.00 0.00 93 1003.0
20260509100050 50 5 0.9 4.3 0.00 0.00 0.00 93 1003.3
20260509094551 50 0 0.0 4.3 0.00 0.00 0.00 93 1003.2
20260509093052 50 5 0.0 3.5 0.00 0.00 0.00 93 1003.5
20260509091546 50 9 0.0 4.3 0.00 0.00 0.00 92 1003.5
20260509090049 50 5 0.9 4.3 0.00 0.00 0.00 92 1003.7
20260509084552 50 5 0.0 3.5 0.00 0.00 0.00 92 1003.8
20260509083050 50 0 0.9 2.6 0.00 0.00 0.00 92 1003.8
20260509081553 50 5 0.0 2.6 0.00 0.00 0.00 91 1003.9
20260509080052 50 0 0.9 2.6 0.00 0.00 0.00 91 1003.6
20260509074554 50 0 0.0 2.6 0.00 0.00 0.00 90 1003.8
20260509073054 50 0 0.0 3.5 0.00 0.00 0.00 90 1003.9
20260509071555 51 9 0.9 4.3 0.00 0.00 0.00 90 1004.3
20260509070100 51 0 0.9 3.5 0.00 0.00 0.00 89 1004.5
20260509064554 51 5 0.0 3.5 0.00 0.00 0.00 88 1004.5
20260509063054 52 5 0.9 3.5 0.00 0.00 0.00 88 1004.6
20260509061613 52 5 0.9 3.5 0.00 0.00 0.00 87 1004.8
20260509060113 53 360 0.9 4.3 0.00 0.00 0.00 87 1004.9
20260509054554 53 360 0.9 4.3 0.00 0.00 0.00 86 1005.0
20260509053050 54 360 0.9 3.5 0.00 0.00 0.00 86 1005.1
20260509051558 54 360 0.9 5.2 0.00 0.00 0.00 85 1005.0
20260509050109 54 360 1.7 5.2 0.00 0.00 0.00 84 1004.9
20260509044558 54 360 0.9 5.2 0.00 0.00 0.00 83 1004.9
20260509043049 55 360 0.0 3.5 0.00 0.00 0.00 82 1005.0
20260509041550 55 360 0.9 4.3 0.00 0.00 0.00 80 1005.0
20260509040048 56 360 0.9 7.0 0.00 0.00 0.00 78 1005.1
20260509034552 56 360 1.7 3.5 0.00 0.00 0.00 77 1005.2
20260509033049 56 360 0.0 4.3 0.00 0.00 0.00 74 1005.4
20260509031551 57 360 0.9 5.2 0.00 0.00 0.00 74 1005.3